sat.trackr.live / text

‹ back to catalog

STARLINK-2555

NORAD 48291 · 2021-036R

PAYLOAD ACTIVE UNKNOWN

§ Identity

Operator
Country
US
Launch date
2021-04-29
Launch site
AFETR
Launch vehicle
Mass (kg)
RCS (m²)

Purposes: comms

External: N2YO · Heavens-Above · Gunter

§ Orbital elements

Epoch: 2026-09-19T11:22:26.223168Z

Period
94.01 min
Inclination
53.1606°
Eccentricity
0.0001684
Mean motion
15.31707062 rev/d
Perigee alt
469.6 km
Apogee alt
471.9 km
Semi-major
6,848.9 km
B*
4.7050e-5
RAAN
255.9836°
Arg perigee
106.6396°
Mean anomaly
253.4791°
Rev number
29,806

§ Raw data

STARLINK-25551 48291U 21036R   26262.47391462  .00001095  00000+0  47050-4 0  99942 48291  53.1606 255.9836 0001684 106.6396 253.4791 15.31707062298063

JSON: /api/v1/satellites/48291 · /tle

For live sub-satellite position, see the globe view (requires WebGL).

§ Visibility from observer

Set your observer location to see the next 7 days of passes ≥ 10°. The values pass through the URL so the page stays shareable.

No JS? Fill the form by hand. The geolocation button needs JavaScript.